SLEIPNER A PLATF current weather conditions

sailwx.info

Wind from 010 at 13 knots

Air temperature 6.0° C
Visibility: greater than 5.4 NM
Dewpoint 5.0° C

Last reported at 2016-Feb-10 03:20 UTC.
Time now 2016-Feb-10 04:47 UTC

Location: N 58°22' E 001°54'.
View on Google Maps.

See reports from other nearby stations

  
Tides and Currents Weather Stations Pressure Air Temp Water Temp Dewpoint Dewpoint Depression Visibility Wind Speed Wind Dir Waves Ship Positions
date/time (UTC)wind fromknots sea level pressurealtimeterstation pressurevisibilityair tempwater tempwave heightnotes
2016-Feb-10 03:20 010 13 5.4 6.0
2016-Feb-10 02:50 020 9 4.9 6.0 Light rain showers.
2016-Feb-10 02:20 020 10 5.4 7.0
2016-Feb-10 01:50 5.4 7.0
2016-Feb-10 01:20 080 2 5.4 7.0
2016-Feb-10 00:50 5.4 6.0
2016-Feb-10 00:20 110 3 5.4 6.0
2016-Feb-09 23:50 090 4 5.4 6.0
2016-Feb-09 23:20 110 7 5.4 6.0
2016-Feb-09 22:50 120 9 5.4 6.0
2016-Feb-09 22:20 130 9 5.4 6.0
2016-Feb-09 21:50 140 10 5.4 6.0
2016-Feb-09 21:20 140 7 5.4 6.0
2016-Feb-09 20:50 150 14 gusting 29 5.4 6.0
2016-Feb-09 20:20 180 8 5.4 6.0
2016-Feb-09 19:50 180 10 5.4 6.0
2016-Feb-09 19:20 190 15 5.4 6.0
2016-Feb-09 18:50 190 14 5.4 6.0
2016-Feb-09 18:20 210 13 5.4 7.0
2016-Feb-09 17:50 200 14 5.4 6.0
2016-Feb-09 17:20 210 14 5.4 7.0
2016-Feb-09 16:50 210 14 5.4 6.0
2016-Feb-09 16:20 220 16 5.4 6.0
2016-Feb-09 15:50 220 16 5.4 6.0
2016-Feb-09 15:20 230 16 5.4 7.0
2016-Feb-09 14:50 230 16 5.4 7.0
2016-Feb-09 14:20 230 16 5.4 7.0
2016-Feb-09 13:50 230 16 5.4 7.0
2016-Feb-09 13:20 230 17 5.4 7.0
2016-Feb-09 12:50 240 18 5.4 7.0
2016-Feb-09 12:20 240 18 5.4 7.0
2016-Feb-09 11:50 240 17 5.4 7.0
2016-Feb-09 11:20 240 18 5.4 7.0
2016-Feb-09 10:50 240 19 5.4 7.0
2016-Feb-09 10:20 240 20 5.4 7.0
2016-Feb-09 09:50 230 22 5.4 7.0
2016-Feb-09 09:20 240 20 5.4 7.0
2016-Feb-09 08:50 240 20 5.4 7.0
2016-Feb-09 08:20 250 20 5.4 7.0
2016-Feb-09 07:50 260 22 5.4 6.0 Light rain.
2016-Feb-09 07:20 260 22 5.4 7.0
2016-Feb-09 06:50 260 25 5.4 7.0
2016-Feb-09 06:20 250 26 5.4 7.0
2016-Feb-09 05:50 260 24 4.3 6.0 Light rain showers.
2016-Feb-09 05:20 260 25 5.4 7.0
2016-Feb-08 20:50 290 19 5.4 7.0
2016-Feb-08 20:20 300 22 5.4 7.0
2016-Feb-08 19:50 280 20 5.4 7.0
2016-Feb-08 19:20 280 20 5.4 7.0
2016-Feb-08 18:50 270 19 5.4 7.0
2016-Feb-08 18:20 260 18 5.4 6.0
2016-Feb-08 17:50 270 17 5.4 6.0 Light drizzle.
2016-Feb-08 17:20 270 14 5.4 6.0 Light rain.
2016-Feb-08 16:50 280 15 5.4 6.0 Light rain showers.
2016-Feb-08 16:20 270 19 5.4 6.0 Light rain.
2016-Feb-08 15:50 270 17 5.4 6.0 Drizzle.
2016-Feb-08 15:20 280 17 5.4 6.0 Light drizzle.
2016-Feb-08 14:50 280 17 5.4 6.0
2016-Feb-08 14:20 230 20 5.4 7.0
2016-Feb-08 13:50 230 20 5.4 7.0
2016-Feb-08 13:20 230 20 5.4 7.0
2016-Feb-08 12:50 230 20 5.4 7.0
2016-Feb-08 12:20 240 22 5.4 7.0
2016-Feb-08 11:50 230 24 5.4 7.0
2016-Feb-08 11:20 230 23 5.4 7.0 Light rain showers.
2016-Feb-08 10:50 230 23 5.4 7.0
2016-Feb-08 10:20 240 26 5.4 6.0 Light rain showers.
2016-Feb-08 09:50 240 23 5.4 6.0 Light rain showers.
2016-Feb-08 09:20 240 23 5.4 7.0 Light rain.
2016-Feb-08 08:50 250 23 5.4 6.0
2016-Feb-08 08:20 240 27 5.4 6.0 Drizzle.
2016-Feb-08 07:50 230 29 5.4 7.0
2016-Feb-08 07:20 230 30 5.4 7.0
2016-Feb-08 06:50 230 26 5.4 7.0
2016-Feb-08 06:20 220 26 5.4 6.0 Light rain showers.
2016-Feb-08 05:50 220 26 2.7 6.0 Light rain showers.
2016-Feb-08 05:20 210 20 5.4 7.0 Light rain showers.
2016-Feb-08 04:50 200 17 5.4 7.0 Light rain.
2016-Feb-08 04:20 200 20 4.9 7.0 Light rain showers.